Location: Columbus
(29.5618°N, 96.6770°W)
Time: 15:07:38
(UTC-05:00)

Daily predictions for brighter satellites

Satellite Brightness Start Highest point End
(mag) Time Altitude Azimuth Time Altitude Azimuth Time Altitude Azimuth
Cosmos 1953 3.1 20:53:03 10° NNE 20:56:39 32° E 21:00:16 10° SE
Cosmos 1602 Rocket 3.7 20:52:59 10° S 20:57:21 58° E 21:01:45 10° NNE
Cosmos 1805 3.7 20:53:59 10° NNW 20:57:52 66° W 21:01:43 10° S
Hubble Space Telescope 1.3 20:54:19 10° W 20:58:17 46° SSW 21:02:15 10° ESE
H-II Stage 2 3.7 20:48:39 10° SW 20:58:24 26° S 21:01:35 10° ESE
USA 186 2.1 20:58:22 10° SSE 21:01:36 47° ENE 21:04:40 10° N
BREEZE-M R/B 4.3 20:59:30 10° NNW 21:01:56 18° NNE 21:03:50 10° ENE
Thor Agena Rocket 3.5 20:58:35 10° NNE 21:03:39 66° ESE 21:08:38 10° S
SJ-6B 3.0 21:03:26 10° S 21:07:16 75° WSW 21:11:14 10° NNW
ERS-2 3.5 21:05:30 10° SE 21:08:26 23° ENE 21:11:24 10° NNE
Cosmos 1943 3.6 21:04:26 10° N 21:09:52 46° ENE 21:15:11 10° SE
ATLAS 2AS CENTAUR R/B 3.4 21:04:56 10° S 21:11:53 42° ESE 21:19:16 10° NE
Aureole 1 4.4 21:09:52 10° NNW 21:13:02 89° NE 21:16:54 10° SSE
Lacrosse 5 1.8 21:08:53 10° SW 21:13:56 86° SE 21:19:01 10° NE
OAO 3 Rocket 4.0 21:09:18 10° W 21:14:10 54° NNW 21:19:00 10° ENE
SL-8 R/B 3.6 21:10:36 10° SW 21:15:24 74° SE 21:20:13 10° NE
Resurs 01 Rocket 2.0 21:12:02 10° SSE 21:16:15 47° ENE 21:20:29 10° N
NOSS 8 (A) 4.3 21:13:01 10° SSW 21:16:41 73° ESE 21:19:52 10° NNE
Cosmos 1400 Rocket 2.8 21:12:43 10° S 21:16:44 62° E 21:20:41 10° NNE
Aureole 1 Rocket 2.4 21:18:44 10° S 21:21:36 47° ESE 21:24:48 10° NNE
Envisat 4.2 21:20:46 10° S 21:25:32 41° W 21:30:20 10° NNW
Iridium 4 Rocket 4.3 21:21:44 10° SSE 21:27:00 38° E 21:31:59 10° NNE
NOAA 11 4.3 21:22:36 10° SSE 21:27:54 57° ENE 21:33:11 10° N
Cosmos 1844 Rocket 3.3 21:23:00 10° SSE 21:28:01 33° ESE 21:33:02 10° NE
Cosmos 1470 2.8 21:29:22 10° N 21:33:17 84° W 21:37:12 10° S
Meteor 1-24 Rocket 4.4 21:32:04 11° SSE 21:37:23 39° E 21:42:55 10° NNE
Aurora 2 Rocket 3.9 21:31:43 10° SW 21:37:23 47° SSE 21:45:04 11° E
Cosmos 1048 Rocket 4.0 21:33:27 10° S 21:38:41 77° ESE 21:44:02 10° NNE
Cosmos 1825 Rocket 3.6 21:35:02 10° S 21:39:24 58° E 21:43:47 10° NNE
USA 215 3.5 21:40:27 18° ESE 21:45:22 61° NE 21:51:49 10° NNW
Meteor 2-5 Rocket 3.8 21:45:15 10° S 21:51:11 86° E 21:57:08 10° N
Cosmos 2285 Rocket 3.9 21:48:31 10° S 21:54:51 80° ESE 22:01:10 10° NNE
Spot 2 Rocket 3.6 21:56:56 17° S 22:00:48 76° WSW 22:05:52 10° NNW
Cosmos 1437 4.4 21:58:54 10° NNE 22:00:49 21° ENE 22:00:49 21° ENE
Cosmos 1452 Rocket 3.5 22:01:29 10° NNW 22:06:47 83° WSW 22:09:45 27° S
Cosmos 1420 Rocket 3.9 22:02:56 10° NNW 22:08:08 87° ENE 22:10:42 31° SSE
Cosmos 2266 Rocket 4.2 22:04:19 10° N 22:10:41 74° W 22:15:45 16° S
Palapa 6 Rocket 4.1 22:08:34 10° WSW 22:13:43 44° S 22:15:33 35° SE
In-Cosmos 22 4.3 22:10:28 10° SSW 22:15:55 74° W 22:21:33 10° N
Meteor 1-16 Rocket 4.4 22:13:09 10° NNW 22:18:43 70° W 22:22:24 23° S
H-2A R/B 2.1 22:21:14 41° SE 22:22:58 67° ENE 22:28:17 10° N
Cosmos 1315 Rocket 4.3 22:21:45 10° SSW 22:25:28 36° W 22:29:15 10° NNW
Nadezhda 2 Rocket 4.4 22:19:18 10° N 22:25:32 76° E 22:28:08 37° SSE
Cosmos 1674 2.6 22:25:41 68° ENE 22:25:41 68° ENE 22:29:21 10° NNE
H-2A R/B (2) 4.5 22:28:31 28° ESE 22:28:31 28° ESE 22:44:20 10° ENE
MetOp-B 4.1 22:25:41 43° SSE 22:27:27 75° ENE 22:32:48 10° N
Cosmos-2242 2.9 22:27:18 10° N 22:31:42 69° E 22:31:59 66° ESE
OAO 3 Copernicus 4.5 22:29:58 10° WNW 22:35:00 67° NNE 22:36:22 46° E
Cosmos 1553 Rocket 3.9 22:33:39 43° SSE 22:35:39 67° E 22:41:39 10° NNE
Cosmos 2084 4.4 22:32:40 10° N 22:35:44 31° NE 22:35:44 31° NE
Hubble Space Telescope 3.1 22:36:33 10° WSW 22:37:50 14° SW 22:37:50 14° SW
Cosmos 494 Rocket 4.2 22:36:41 23° SSW 22:40:00 71° WNW 22:45:15 10° N
ATLAS 3B R/B 3.9 22:37:11 10° N 22:42:34 26° NE 22:44:26 23° ENE
Meteor 1-21 Rocket 4.5 22:43:12 49° ESE 22:43:34 50° E 22:49:11 10° NNE
Helios 1A 3.9 22:45:57 36° NE 22:45:57 36° NE 22:49:07 10° N
SPOT 5 3.2 22:47:50 52° ENE 22:47:55 52° ENE 22:52:56 10° N
Cosmos 2278 Rocket 2.3 22:50:05 54° E 22:50:05 54° E 22:55:17 10° NNE
DMSP B5D2-2 4.1 22:44:35 10° N 22:49:49 78° WNW 22:51:24 46° SSW
Cosmos 1726 3.6 22:47:50 10° N 22:50:03 31° NNE 22:50:03 31° NNE
Meteor 2-10 4.3 22:50:37 10° N 22:55:59 56° E 22:55:59 56° E
ARGOS 4.0 22:55:27 31° SW 22:57:21 43° W 23:02:30 10° NNW
OAO 3 Rocket 4.1 22:53:27 10° WNW 22:58:11 44° N 22:59:32 36° NE
CZ-3 Stage 3 4.3 22:55:31 10° W 23:00:09 88° N 23:33:23 10° E
SEDSat Delta rocket 4.5 22:55:27 10° WSW 22:58:14 31° SW 22:58:14 31° SW
Helios 1B rocket 3.5 22:57:00 10° NNE 22:59:36 38° NNE 22:59:36 38° NNE
ATLAS 2AS CENTAUR R/B 4.4 22:55:51 10° WSW 23:02:53 37° NW 23:10:17 10° NNE
Cosmos 2251 Rocket 3.4 23:05:50 80° SW 23:06:05 85° WNW 23:11:27 10° NNE
ERS-1 Rocket 3.2 23:06:46 56° WSW 23:07:08 58° W 23:12:06 10° NNW
COSMOS 2406 3.4 23:02:50 10° N 23:08:28 58° ENE 23:08:28 58° ENE
Cosmos 1346 Rocket 4.1 23:04:58 10° NNW 23:08:20 36° W 23:08:20 36° W
CZ-2C R/B 4.1 23:09:46 39° ENE 23:09:46 39° ENE 23:14:50 10° N
Cosmos 2221 4.3 23:17:04 10° N 23:19:04 24° NNE 23:19:04 24° NNE
Cosmos 921 Rocket 4.3 23:22:40 10° NNW 23:26:03 39° WNW 23:26:03 39° WNW
USA 215 4.4 23:27:48 27° SW 23:28:28 28° WSW 23:33:56 10° WNW
Aurora 2 Rocket 4.0 23:24:08 10° WSW 23:31:26 66° S 23:31:38 65° S
ATLAS 5 CENTAUR R/B 3.5 23:35:22 25° NNE 23:35:22 25° NNE 23:37:20 10° NNE
Cosmos 1745 Rocket 4.1 23:31:14 10° NNW 23:37:28 67° W 23:37:41 66° WSW
NOSS 3-4 (A) 4.0 23:37:54 36° WSW 23:40:07 53° WNW 23:46:16 10° NNE
NOSS 3-4 (C) 4.0 23:38:08 38° WSW 23:40:12 54° WNW 23:46:21 10° NNE
Cosmos 2082 Rocket 3.9 23:39:45 10° NNE 23:43:22 22° NE 23:43:22 22° NE
Cosmos 1833 Rocket 4.2 23:44:24 10° N 23:48:06 26° NE 23:48:06 26° NE
CENTAUR R/B 4.4 23:45:03 10° N 23:51:53 28° NE 23:54:15 25° ENE
Terra 3.1 23:53:44 38° NW 23:53:44 38° NW 23:56:47 10° NNW
